This is the latest recevied weather packets stored in our database for station/object JH7UAX-10. If no packets are shown the sender has not sent any weather packets the latest 10 day(s).
| Time | Temp. | Humidity | Pressure | Rain* | Wind** | Luminosity | Snow |
|---|---|---|---|---|---|---|---|
| 1777979278 | 13.33° C | 67% | 1029.6 hPa | 0 mm | - | - | - |
| 1777978806 | 13.33° C | 66% | 1029.6 hPa | 0 mm | - | - | - |
| 1777978378 | 13.89° C | 64% | 1029.5 hPa | 0 mm | - | - | - |
| 1777977906 | 13.89° C | 63% | 1029.6 hPa | 0 mm | - | - | - |
| 1777977478 | 13.89° C | 62% | 1029.4 hPa | 0 mm | - | - | - |
| 1777976578 | 13.33° C | 65% | 1029.2 hPa | 0 mm | - | - | - |
| 1777975679 | 13.89° C | 66% | 1029.2 hPa | 0 mm | - | - | - |
| 1777974779 | 14.44° C | 67% | 1029 hPa | 0 mm | - | - | - |
| 1777973879 | 15° C | 63% | 1029 hPa | 0 mm | - | - | - |
| 1777973405 | 15° C | 64% | 1029 hPa | 0 mm | - | - | - |
| 1777972979 | 15.56° C | 63% | 1029 hPa | 0 mm | - | - | - |
| 1777972078 | 15.56° C | 62% | 1028.9 hPa | 0 mm | - | - | - |
| 1777971606 | 16.11° C | 62% | 1028.9 hPa | 0 mm | - | - | - |
| 1777971178 | 16.11° C | 62% | 1028.8 hPa | 0 mm | - | - | - |
| 1777970706 | 16.11° C | 62% | 1028.9 hPa | 0 mm | - | - | - |
| 1777970278 | 16.67° C | 62% | 1028.8 hPa | 0 mm | - | - | - |
| 1777969806 | 16.67° C | 60% | 1028.7 hPa | 0 mm | - | - | - |
| 1777969378 | 17.22° C | 61% | 1028.9 hPa | 0 mm | - | - | - |
| 1777968479 | 16.67° C | 66% | 1028.9 hPa | 0 mm | - | - | - |
| 1777968005 | 16.67° C | 66% | 1029 hPa | 0 mm | - | - | - |
| 1777967578 | 17.22° C | 65% | 1028.9 hPa | 0 mm | - | - | - |
| 1777966678 | 17.22° C | 64% | 1028.9 hPa | 0 mm | - | - | - |
| 1777966206 | 17.78° C | 65% | 1028.9 hPa | 0 mm | - | - | - |
| 1777965778 | 18.33° C | 58% | 1028.9 hPa | 0 mm | - | - | - |
| 1777964879 | 18.33° C | 60% | 1028.6 hPa | 0 mm | - | - | - |
* Rain latest hour (hover to see other rain measurements)
** Current wind speed in m/s (hover to see current wind gust speed)